Time,TemperatureF,DewpointF,PressureIn,WindDirection,WindDirectionDegrees,WindSpeedMPH,WindSpeedGustMPH,Humidity,HourlyPrecipIn,Conditions,Clouds,dailyrainin,SoftwareType,DateUTC
2013-01-02 00:03:00,12.0,0.0,29.80,WNW,289,14.0,-999.0,57,-99.99,,,-99.99,,2013-01-02 05:03:00,
2013-01-02 00:12:00,12.0,0.0,29.80,WNW,289,14.0,-999.0,57,-99.99,,,-99.99,,2013-01-02 05:12:00,
2013-01-02 00:22:00,12.0,0.0,29.80,WNW,295,14.0,-999.0,57,-99.99,,,-99.99,,2013-01-02 05:22:00,
2013-01-02 00:33:00,12.0,0.0,29.81,NW,304,14.0,-999.0,57,-99.99,,,-99.99,,2013-01-02 05:33:00,
2013-01-02 00:42:00,12.0,0.0,29.81,NW,304,14.0,-999.0,57,-99.99,,,-99.99,,2013-01-02 05:42:00,
2013-01-02 00:52:00,11.0,-1.0,29.81,NNW,340,12.0,-999.0,58,-99.99,,,-99.99,,2013-01-02 05:52:00,
2013-01-02 01:02:00,11.0,-1.0,29.81,NW,319,11.0,-999.0,57,-99.99,,,-99.99,,2013-01-02 06:02:00,
2013-01-02 01:12:00,11.0,-1.0,29.81,NW,319,11.0,-999.0,57,-99.99,,,-99.99,,2013-01-02 06:12:00,
2013-01-02 01:22:00,11.0,-1.0,29.81,NW,323,11.0,-999.0,58,-99.99,,,-99.99,,2013-01-02 06:22:00,
2013-01-02 01:32:00,10.0,-2.0,29.81,NNW,333,10.0,-999.0,58,-99.99,,,-99.99,,2013-01-02 06:32:00,
2013-01-02 01:42:00,10.0,-2.0,29.81,NNW,333,10.0,-999.0,58,-99.99,,,-99.99,,2013-01-02 06:42:00,
2013-01-02 01:53:00,10.0,-1.0,29.82,NNW,347,10.0,-999.0,60,-99.99,,,-99.99,,2013-01-02 06:53:00,
2013-01-02 02:02:00,10.0,-1.0,29.82,NW,326,8.0,-999.0,61,-99.99,,,-99.99,,2013-01-02 07:02:00,
2013-01-02 02:12:00,10.0,-1.0,29.82,NW,326,8.0,-999.0,61,-99.99,,,-99.99,,2013-01-02 07:12:00,
2013-01-02 02:22:00,10.0,-1.0,29.82,NW,326,8.0,-999.0,61,-99.99,,,-99.99,,2013-01-02 07:22:00,
2013-01-02 02:32:00,9.0,-1.0,29.83,NNW,347,7.0,-999.0,62,-99.99,,,-99.99,,2013-01-02 07:32:00,
2013-01-02 02:42:00,9.0,-1.0,29.83,NNW,347,7.0,-999.0,62,-99.99,,,-99.99,,2013-01-02 07:42:00,
2013-01-02 02:52:00,9.0,-1.0,29.83,North,352,6.0,-999.0,63,-99.99,,,-99.99,,2013-01-02 07:52:00,
2013-01-02 03:02:00,8.0,-2.0,29.83,NW,320,3.0,-999.0,63,-99.99,,,-99.99,,2013-01-02 08:02:00,
2013-01-02 03:12:00,8.0,-2.0,29.83,NW,320,3.0,-999.0,63,-99.99,,,-99.99,,2013-01-02 08:12:00,
2013-01-02 03:22:00,8.0,-1.0,29.83,NW,320,4.0,-999.0,65,-99.99,,,-99.99,,2013-01-02 08:22:00,
2013-01-02 03:32:00,8.0,-1.0,29.84,NNW,328,5.0,-999.0,65,-99.99,,,-99.99,,2013-01-02 08:32:00,
2013-01-02 03:42:00,8.0,-1.0,29.84,NNW,328,5.0,-999.0,65,-99.99,,,-99.99,,2013-01-02 08:42:00,
2013-01-02 03:53:00,7.0,-2.0,29.83,NW,305,1.0,-999.0,66,-99.99,,,-99.99,,2013-01-02 08:53:00,
2013-01-02 04:02:00,7.0,-2.0,29.83,NW,313,0.0,-999.0,66,-99.99,,,-99.99,,2013-01-02 09:02:00,
2013-01-02 04:12:00,7.0,-2.0,29.83,NW,313,0.0,-999.0,66,-99.99,,,-99.99,,2013-01-02 09:12:00,
2013-01-02 04:22:00,7.0,-2.0,29.83,NW,325,0.0,-999.0,67,-99.99,,,-99.99,,2013-01-02 09:22:00,
2013-01-02 04:32:00,6.0,-2.0,29.83,NW,313,1.0,-999.0,68,-99.99,,,-99.99,,2013-01-02 09:32:00,
2013-01-02 04:43:00,6.0,-2.0,29.83,NW,313,1.0,-999.0,68,-99.99,,,-99.99,,2013-01-02 09:43:00,
2013-01-02 04:53:00,6.0,-2.0,29.83,North,359,0.0,-999.0,68,-99.99,,,-99.99,,2013-01-02 09:53:00,
2013-01-02 05:02:00,6.0,-2.0,29.84,NNW,342,0.0,-999.0,69,-99.99,,,-99.99,,2013-01-02 10:02:00,
2013-01-02 05:12:00,6.0,-2.0,29.84,NNW,330,0.0,-999.0,69,-99.99,,,-99.99,,2013-01-02 10:12:00,
2013-01-02 05:22:00,6.0,-2.0,29.84,NNW,330,0.0,-999.0,69,-99.99,,,-99.99,,2013-01-02 10:22:00,
2013-01-02 05:32:00,5.0,-3.0,29.84,NNW,329,0.0,-999.0,69,-99.99,,,-99.99,,2013-01-02 10:32:00,
2013-01-02 05:42:00,5.0,-3.0,29.84,NNW,329,0.0,-999.0,69,-99.99,,,-99.99,,2013-01-02 10:42:00,
2013-01-02 05:53:00,5.0,-3.0,29.84,NNW,347,0.0,-999.0,69,-99.99,,,-99.99,,2013-01-02 10:53:00,
2013-01-02 06:02:00,5.0,-3.0,29.84,NNW,340,0.0,-999.0,70,-99.99,,,-99.99,,2013-01-02 11:02:00,
2013-01-02 06:12:00,5.0,-3.0,29.84,NNW,340,0.0,-999.0,70,-99.99,,,-99.99,,2013-01-02 11:12:00,
2013-01-02 06:22:00,5.0,-3.0,29.84,NW,309,1.0,-999.0,70,-99.99,,,-99.99,,2013-01-02 11:22:00,
2013-01-02 06:32:00,6.0,-2.0,29.84,NNW,342,1.0,-999.0,70,-99.99,,,-99.99,,2013-01-02 11:32:00,
2013-01-02 06:42:00,6.0,-2.0,29.84,NNW,342,1.0,-999.0,70,-99.99,,,-99.99,,2013-01-02 11:42:00,
2013-01-02 06:53:00,6.0,-2.0,29.84,NW,311,0.0,-999.0,68,-99.99,,,-99.99,,2013-01-02 11:53:00,
2013-01-02 07:03:00,5.0,-3.0,29.84,NW,322,0.0,-999.0,68,-99.99,,,-99.99,,2013-01-02 12:03:00,
2013-01-02 07:12:00,5.0,-3.0,29.84,NW,322,0.0,-999.0,68,-99.99,,,-99.99,,2013-01-02 12:12:00,
2013-01-02 07:22:00,6.0,-2.0,29.84,WNW,299,1.0,-999.0,69,-99.99,,,-99.99,,2013-01-02 12:22:00,
2013-01-02 07:33:00,6.0,-2.0,29.84,NW,311,2.0,-999.0,70,-99.99,,,-99.99,,2013-01-02 12:33:00,
2013-01-02 07:42:00,6.0,-2.0,29.84,NW,311,2.0,-999.0,70,-99.99,,,-99.99,,2013-01-02 12:42:00,
2013-01-02 07:53:00,7.0,0.0,29.84,NW,323,1.0,-999.0,71,-99.99,,,-99.99,,2013-01-02 12:53:00,
2013-01-02 08:02:00,7.0,0.0,29.84,NNW,329,4.0,-999.0,72,-99.99,,,-99.99,,2013-01-02 13:02:00,
2013-01-02 08:12:00,7.0,0.0,29.84,NNW,329,4.0,-999.0,72,-99.99,,,-99.99,,2013-01-02 13:12:00,
2013-01-02 08:22:00,9.0,1.0,29.84,North,349,6.0,-999.0,69,-99.99,,,-99.99,,2013-01-02 13:22:00,
2013-01-02 08:33:00,11.0,2.0,29.84,NW,325,6.0,-999.0,65,-99.99,,,-99.99,,2013-01-02 13:33:00,
2013-01-02 08:43:00,11.0,2.0,29.84,NW,325,6.0,-999.0,65,-99.99,,,-99.99,,2013-01-02 13:43:00,
2013-01-02 08:52:00,12.0,1.0,29.84,NW,311,11.0,-999.0,60,-99.99,,,-99.99,,2013-01-02 13:52:00,
2013-01-02 09:02:00,13.0,1.0,29.84,WNW,296,8.0,-999.0,58,-99.99,,,-99.99,,2013-01-02 14:02:00,
2013-01-02 09:12:00,13.0,1.0,29.84,WNW,296,8.0,-999.0,58,-99.99,,,-99.99,,2013-01-02 14:12:00,
2013-01-02 09:22:00,14.0,1.0,29.84,NW,308,12.0,-999.0,56,-99.99,,,-99.99,,2013-01-02 14:22:00,
2013-01-02 09:33:00,14.0,1.0,29.84,NW,322,10.0,-999.0,55,-99.99,,,-99.99,,2013-01-02 14:33:00,
2013-01-02 09:43:00,14.0,1.0,29.84,NW,322,10.0,-999.0,55,-99.99,,,-99.99,,2013-01-02 14:43:00,
2013-01-02 09:53:00,14.0,0.0,29.85,WNW,292,13.0,-999.0,53,-99.99,,,-99.99,,2013-01-02 14:53:00,
2013-01-02 10:03:00,15.0,2.0,29.85,WNW,299,10.0,-999.0,55,-99.99,,,-99.99,,2013-01-02 15:03:00,
2013-01-02 10:12:00,15.0,2.0,29.85,WNW,299,10.0,-999.0,55,-99.99,,,-99.99,,2013-01-02 15:12:00,
2013-01-02 10:23:00,15.0,1.0,29.85,NW,323,14.0,-999.0,52,-99.99,,,-99.99,,2013-01-02 15:23:00,
2013-01-02 10:33:00,16.0,1.0,29.85,WNW,294,12.0,-999.0,50,-99.99,,,-99.99,,2013-01-02 15:33:00,
2013-01-02 10:43:00,16.0,1.0,29.85,WNW,294,12.0,-999.0,50,-99.99,,,-99.99,,2013-01-02 15:43:00,
2013-01-02 10:53:00,17.0,1.0,29.85,NW,315,10.0,-999.0,49,-99.99,,,-99.99,,2013-01-02 15:53:00,
2013-01-02 11:03:00,17.0,1.0,29.84,WNW,298,11.0,-999.0,49,-99.99,,,-99.99,,2013-01-02 16:03:00,
2013-01-02 11:13:00,17.0,1.0,29.84,WNW,298,11.0,-999.0,49,-99.99,,,-99.99,,2013-01-02 16:13:00,
2013-01-02 11:22:00,17.0,1.0,29.83,North,350,12.0,-999.0,49,-99.99,,,-99.99,,2013-01-02 16:22:00,
2013-01-02 11:33:00,17.0,2.0,29.83,North,356,9.0,-999.0,50,-99.99,,,-99.99,,2013-01-02 16:33:00,
2013-01-02 11:43:00,17.0,2.0,29.83,North,356,9.0,-999.0,50,-99.99,,,-99.99,,2013-01-02 16:43:00,
2013-01-02 11:53:00,17.0,2.0,29.83,NW,326,12.0,-999.0,50,-99.99,,,-99.99,,2013-01-02 16:53:00,
2013-01-02 12:03:00,17.0,1.0,29.82,NW,319,11.0,-999.0,49,-99.99,,,-99.99,,2013-01-02 17:03:00,
2013-01-02 12:13:00,17.0,1.0,29.82,NW,319,11.0,-999.0,49,-99.99,,,-99.99,,2013-01-02 17:13:00,
2013-01-02 12:23:00,18.0,1.0,29.82,NNW,333,11.0,-999.0,46,-99.99,,,-99.99,,2013-01-02 17:23:00,
2013-01-02 12:33:00,18.0,1.0,29.82,WNW,282,11.0,-999.0,46,-99.99,,,-99.99,,2013-01-02 17:33:00,
2013-01-02 12:43:00,18.0,1.0,29.82,WNW,282,11.0,-999.0,46,-99.99,,,-99.99,,2013-01-02 17:43:00,
2013-01-02 12:53:00,18.0,0.0,29.81,NW,312,14.0,-999.0,45,-99.99,,,-99.99,,2013-01-02 17:53:00,
2013-01-02 13:03:00,18.0,1.0,29.81,WNW,285,12.0,-999.0,46,-99.99,,,-99.99,,2013-01-02 18:03:00,
2013-01-02 13:13:00,18.0,1.0,29.81,WNW,285,12.0,-999.0,46,-99.99,,,-99.99,,2013-01-02 18:13:00,
2013-01-02 13:23:00,18.0,1.0,29.81,NW,318,9.0,-999.0,47,-99.99,,,-99.99,,2013-01-02 18:23:00,
2013-01-02 13:33:00,16.0,-1.0,29.80,NW,306,11.0,-999.0,46,-99.99,,,-99.99,,2013-01-02 18:33:00,
2013-01-02 13:43:00,16.0,-1.0,29.80,NW,306,11.0,-999.0,46,-99.99,,,-99.99,,2013-01-02 18:43:00,
2013-01-02 13:53:00,16.0,-1.0,29.81,NNW,332,12.0,-999.0,47,-99.99,,,-99.99,,2013-01-02 18:53:00,
2013-01-02 14:03:00,16.0,0.0,29.81,NNW,335,8.0,-999.0,48,-99.99,,,-99.99,,2013-01-02 19:03:00,
2013-01-02 14:13:00,16.0,0.0,29.81,NNW,335,8.0,-999.0,48,-99.99,,,-99.99,,2013-01-02 19:13:00,
2013-01-02 14:23:00,17.0,-1.0,29.81,NW,315,9.0,-999.0,45,-99.99,,,-99.99,,2013-01-02 19:23:00,
2013-01-02 14:33:00,17.0,-1.0,29.81,NNW,329,13.0,-999.0,44,-99.99,,,-99.99,,2013-01-02 19:33:00,
2013-01-02 14:43:00,17.0,-1.0,29.81,NNW,329,13.0,-999.0,44,-99.99,,,-99.99,,2013-01-02 19:43:00,
2013-01-02 14:53:00,16.0,-2.0,29.81,North,360,13.0,-999.0,43,-99.99,,,-99.99,,2013-01-02 19:53:00,
2013-01-02 15:03:00,16.0,-2.0,29.82,NW,311,11.0,-999.0,43,-99.99,,,-99.99,,2013-01-02 20:03:00,
2013-01-02 15:12:00,16.0,-2.0,29.82,NW,311,11.0,-999.0,43,-99.99,,,-99.99,,2013-01-02 20:12:00,
2013-01-02 15:23:00,15.0,-4.0,29.83,WNW,287,11.0,-999.0,42,-99.99,,,-99.99,,2013-01-02 20:23:00,
2013-01-02 15:33:00,15.0,-4.0,29.84,NW,322,12.0,-999.0,42,-99.99,,,-99.99,,2013-01-02 20:33:00,
2013-01-02 15:42:00,15.0,-4.0,29.84,NW,322,12.0,-999.0,42,-99.99,,,-99.99,,2013-01-02 20:42:00,
2013-01-02 15:53:00,14.0,-4.0,29.85,NW,322,10.0,-999.0,43,-99.99,,,-99.99,,2013-01-02 20:53:00,
2013-01-02 16:03:00,14.0,-3.0,29.85,NNW,335,9.0,-999.0,45,-99.99,,,-99.99,,2013-01-02 21:03:00,
2013-01-02 16:13:00,14.0,-3.0,29.85,NNW,335,9.0,-999.0,45,-99.99,,,-99.99,,2013-01-02 21:13:00,
2013-01-02 16:22:00,13.0,-4.0,29.87,NW,319,10.0,-999.0,46,-99.99,,,-99.99,,2013-01-02 21:22:00,
2013-01-02 16:33:00,12.0,-4.0,29.86,NW,323,12.0,-999.0,47,-99.99,,,-99.99,,2013-01-02 21:33:00,
2013-01-02 16:43:00,12.0,-4.0,29.86,NW,323,12.0,-999.0,47,-99.99,,,-99.99,,2013-01-02 21:43:00,
2013-01-02 16:53:00,12.0,-4.0,29.86,NW,308,10.0,-999.0,48,-99.99,,,-99.99,,2013-01-02 21:53:00,
2013-01-02 17:03:00,12.0,-4.0,29.88,WNW,294,13.0,-999.0,47,-99.99,,,-99.99,,2013-01-02 22:03:00,
2013-01-02 17:12:00,12.0,-4.0,29.88,WNW,294,13.0,-999.0,47,-99.99,,,-99.99,,2013-01-02 22:12:00,
2013-01-02 17:22:00,11.0,-5.0,29.88,North,359,12.0,-999.0,47,-99.99,,,-99.99,,2013-01-02 22:22:00,
2013-01-02 17:32:00,11.0,-4.0,29.90,NNW,335,7.0,-999.0,49,-99.99,,,-99.99,,2013-01-02 22:32:00,
2013-01-02 17:42:00,11.0,-4.0,29.90,NNW,335,7.0,-999.0,49,-99.99,,,-99.99,,2013-01-02 22:42:00,
2013-01-02 17:53:00,11.0,-5.0,29.91,NW,313,12.0,-999.0,48,-99.99,,,-99.99,,2013-01-02 22:53:00,
2013-01-02 18:03:00,10.0,-5.0,29.91,NNW,339,12.0,-999.0,49,-99.99,,,-99.99,,2013-01-02 23:03:00,
2013-01-02 18:13:00,10.0,-5.0,29.91,WNW,292,14.0,-999.0,49,-99.99,,,-99.99,,2013-01-02 23:13:00,
2013-01-02 18:23:00,10.0,-5.0,29.91,WNW,292,14.0,-999.0,49,-99.99,,,-99.99,,2013-01-02 23:23:00,
2013-01-02 18:33:00,10.0,-4.0,29.91,NW,313,13.0,-999.0,51,-99.99,,,-99.99,,2013-01-02 23:33:00,
2013-01-02 18:42:00,10.0,-4.0,29.91,NW,313,13.0,-999.0,51,-99.99,,,-99.99,,2013-01-02 23:42:00,
2013-01-02 18:53:00,9.0,-5.0,29.91,NW,320,12.0,-999.0,52,-99.99,,,-99.99,,2013-01-02 23:53:00,
2013-01-02 19:02:00,9.0,-5.0,29.91,NW,306,13.0,-999.0,53,-99.99,,,-99.99,,2013-01-03 00:02:00,
2013-01-02 19:12:00,9.0,-5.0,29.91,NW,306,13.0,-999.0,53,-99.99,,,-99.99,,2013-01-03 00:12:00,
2013-01-02 19:22:00,9.0,-5.0,29.92,NNW,330,15.0,-999.0,53,-99.99,,,-99.99,,2013-01-03 00:22:00,
2013-01-02 19:38:00,8.0,-5.0,29.92,NNW,343,11.0,-999.0,55,-99.99,,,-99.99,,2013-01-03 00:38:00,
2013-01-02 19:53:00,8.0,-5.0,29.93,NW,306,10.0,-999.0,54,-99.99,,,-99.99,,2013-01-03 00:53:00,
2013-01-02 20:02:00,8.0,-5.0,29.94,NW,309,9.0,-999.0,55,-99.99,,,-99.99,,2013-01-03 01:02:00,
2013-01-02 20:12:00,8.0,-5.0,29.94,NW,309,9.0,-999.0,55,-99.99,,,-99.99,,2013-01-03 01:12:00,
2013-01-02 20:22:00,7.0,-5.0,29.94,NW,315,6.0,-999.0,56,-99.99,,,-99.99,,2013-01-03 01:22:00,
2013-01-02 20:32:00,7.0,-5.0,29.94,NNW,336,6.0,-999.0,57,-99.99,,,-99.99,,2013-01-03 01:32:00,
2013-01-02 20:42:00,7.0,-5.0,29.94,NNW,336,6.0,-999.0,57,-99.99,,,-99.99,,2013-01-03 01:42:00,
2013-01-02 20:53:00,6.0,-6.0,29.94,North,349,7.0,-999.0,57,-99.99,,,-99.99,,2013-01-03 01:53:00,
2013-01-02 21:02:00,6.0,-6.0,29.95,NNE,21,7.0,-999.0,57,-99.99,,,-99.99,,2013-01-03 02:02:00,
2013-01-02 21:12:00,6.0,-6.0,29.95,NNE,21,7.0,-999.0,57,-99.99,,,-99.99,,2013-01-03 02:12:00,
2013-01-02 21:23:00,5.0,-7.0,29.93,NNW,336,12.0,-999.0,57,-99.99,,,-99.99,,2013-01-03 02:23:00,
2013-01-02 21:33:00,5.0,-7.0,29.94,NNW,332,8.0,-999.0,57,-99.99,,,-99.99,,2013-01-03 02:33:00,
2013-01-02 21:42:00,5.0,-7.0,29.94,NNW,332,8.0,-999.0,57,-99.99,,,-99.99,,2013-01-03 02:42:00,
2013-01-02 21:52:00,5.0,-7.0,29.94,NNW,332,8.0,-999.0,57,-99.99,,,-99.99,,2013-01-03 02:52:00,
2013-01-02 22:02:00,4.0,-7.0,29.95,NW,323,3.0,-999.0,58,-99.99,,,-99.99,,2013-01-03 03:02:00,
2013-01-02 22:12:00,4.0,-7.0,29.96,WNW,302,7.0,-999.0,59,-99.99,,,-99.99,,2013-01-03 03:12:00,
2013-01-02 22:22:00,4.0,-7.0,29.96,WNW,302,7.0,-999.0,59,-99.99,,,-99.99,,2013-01-03 03:22:00,
2013-01-02 22:46:00,4.0,-7.0,29.96,NW,308,8.0,-999.0,59,-99.99,,,-99.99,,2013-01-03 03:46:00,
2013-01-02 22:53:00,4.0,-7.0,29.98,North,360,8.0,-999.0,59,-99.99,,,-99.99,,2013-01-03 03:53:00,
2013-01-02 23:03:00,-999.0,-99.9,29.98,NNW,328,5.0,-999.0,-999,-99.99,,,-99.99,,2013-01-03 04:03:00,
2013-01-02 23:12:00,-999.0,-99.9,29.98,NNW,328,5.0,-999.0,-999,-99.99,,,-99.99,,2013-01-03 04:12:00,
2013-01-02 23:22:00,-999.0,-99.9,29.99,WNW,298,7.0,-999.0,-999,-99.99,,,-99.99,,2013-01-03 04:22:00,
2013-01-02 23:33:00,-999.0,-99.9,29.98,NW,312,7.0,-999.0,-999,-99.99,,,-99.99,,2013-01-03 04:33:00,
2013-01-02 23:43:00,-999.0,-99.9,29.98,NW,312,7.0,-999.0,-999,-99.99,,,-99.99,,2013-01-03 04:43:00,
2013-01-02 23:53:00,-999.0,-99.9,29.98,NNW,344,8.0,-999.0,-999,-99.99,,,-99.99,,2013-01-03 04:53:00,